Location: ?????
(55.8833°N, 37.6500°E)
Time: 05:35:38
(UTC+00:00)

Cosmos 2208 Rocket - Pass Details

Date: 27 February 2020
Orbit: 755 x 805 km, 74.0° (Epoch: 31 March)

Event Time Altitude Azimuth Distance (km) Brightness Sun altitude
Rises 17:28:42 0° 201° (SSW) 3,293 7.3 -21.7°
Reaches altitude 10° 17:31:07 10° 200° (SSW) 2,361 6.5 -22.0°
Maximum altitude 17:36:29 78° 115° (ESE) 810 3.9 -22.7°
Drops below altitude 10° 17:41:49 10° 30° (NNE) 2,345 6.4 -23.4°
Sets 17:44:12 0° 29° (NNE) 3,268 7.2 -23.7°
